Falfurrias, TX

6:16 PM CDT on August 18, 2019 (GMT -0500)
Falfurrias

Weather History for KBKS - July, 2019

Change the Weather History Date:

Thursday, July 18, 2019

  Actual Average (KNQI) Record (KNQI)
Temperature  
Mean Temperature 90 °F -  
Max Temperature 103 °F 93 °F 100 °F (1998)
Min Temperature 78 °F 73 °F 70 °F (2006)
Cooling Degree Days 25    
Growing Degree Days 40 (Base 50)    
Moisture  
Dew Point 72 °F    
Average Humidity 61    
Maximum Humidity 87    
Minimum Humidity 30    
Precipitation  
Precipitation 0.00 in - - ()
Sea Level Pressure  
Sea Level Pressure 29.95 in    
Wind  
Wind Speed 10 mph (SE)    
Max Wind Speed 20 mph    
Max Gust Speed 26 mph    
Visibility 10 miles    
Events      
Averages and records for this station are not official NWS values.
T = Trace of Precipitation, MM = Missing Value Source: NWS Daily Summary

Daily Weather History Graph

Daily Weather History Graph

Search for Another Location

Airport or City:

Astronomy

Jul. 18, 2019 Rise Set
Actual Time 6:49 AM CDT 8:28 PM CDT
Civil Twilight 6:23 AM CDT 8:53 PM CDT
Nautical Twilight 5:52 AM CDT 9:24 PM CDT
Astronomical Twilight 5:19 AM CDT 9:57 PM CDT
Moon 10:00 PM CDT 8:16 AM CDT
Length of Visible Light 14h 30m
Length of Day
13h 39m
Full, 97% of the Moon is Illuminated
Jul 18
Full
Jul 24
Last Quarter
Jul 31
New
Aug 7
First Quarter
Aug 15
Full

Hourly Weather History & Observations

Time (CDT) Temp. Heat Index Dew Point Humidity Pressure Visibility Wind Dir Wind Speed Gust Speed Precip Events Conditions
12:15 AM 83.3 °F 92.1 °F 76.5 °F 80% 29.98 in 10.0 mi ESE 9.2 mph - N/A   Clear
12:35 AM 82.8 °F 91.0 °F 76.5 °F 81% 29.98 in 10.0 mi SE 9.2 mph - N/A   Clear
12:55 AM 82.8 °F 91.3 °F 76.6 °F 82% 29.98 in 10.0 mi ESE 10.4 mph 16.1 mph N/A   Clear
1:15 AM 82.8 °F 91.6 °F 77.0 °F 83% 29.98 in 10.0 mi SE 8.1 mph - N/A   Clear
1:35 AM 82.8 °F 91.6 °F 77.0 °F 83% 29.99 in 10.0 mi SE 8.1 mph - N/A   Clear
1:55 AM 82.6 °F 91.1 °F 77.0 °F 83% 29.98 in 10.0 mi SE 10.4 mph - N/A   Clear
2:15 AM 82.4 °F 90.9 °F 77.0 °F 84% 29.99 in 10.0 mi ESE 9.2 mph - N/A   Clear
2:35 AM 82.0 °F 90.2 °F 77.0 °F 85% 29.98 in 10.0 mi ESE 8.1 mph - N/A   Clear
2:55 AM 81.9 °F 90.0 °F 77.2 °F 86% 29.98 in 10.0 mi SE 6.9 mph - N/A   Clear
3:15 AM 81.9 °F 90.0 °F 77.2 °F 86% 29.97 in 10.0 mi ESE 9.2 mph - N/A   Clear
3:35 AM 81.7 °F 89.5 °F 77.2 °F 86% 29.97 in 10.0 mi ESE 6.9 mph - N/A   Clear
3:55 AM 81.5 °F 89.0 °F 77.0 °F 86% 29.97 in 10.0 mi SE 4.6 mph - N/A   Clear
4:15 AM 81.5 °F 89.0 °F 77.0 °F 86% 29.96 in 10.0 mi SE 8.1 mph - N/A   Clear
4:35 AM 81.5 °F 88.7 °F 76.6 °F 85% 29.97 in 10.0 mi SE 5.8 mph - N/A   Clear
4:55 AM 81.5 °F 88.5 °F 76.1 °F 84% 29.97 in 10.0 mi SE 6.9 mph - N/A   Clear
5:15 AM 81.0 °F 87.1 °F 75.7 °F 84% 29.97 in 10.0 mi SE 6.9 mph - N/A   Clear
5:35 AM 80.8 °F 86.7 °F 75.4 °F 84% 29.97 in 10.0 mi SE 8.1 mph - N/A   Clear
5:55 AM 80.6 °F 86.0 °F 74.8 °F 83% 29.97 in 10.0 mi ESE 8.1 mph - N/A   Clear
6:15 AM 80.1 °F 84.8 °F 74.7 °F 83% 29.98 in 10.0 mi SE 5.8 mph - N/A   Clear
6:35 AM 79.7 °F - 74.5 °F 84% 29.98 in 10.0 mi ESE 4.6 mph - N/A   Clear
6:55 AM 78.8 °F - 74.3 °F 86% 29.98 in 10.0 mi ESE 4.6 mph - N/A   Clear
7:15 AM 78.4 °F - 74.3 °F 87% 29.98 in 10.0 mi ESE 4.6 mph - N/A   Clear
7:35 AM 79.2 °F - 74.3 °F 85% 29.99 in 10.0 mi SE 3.5 mph - N/A   Clear
7:55 AM 80.8 °F 86.3 °F 74.7 °F 82% 29.99 in 10.0 mi ESE 4.6 mph - N/A   Clear
8:15 AM 83.1 °F 90.4 °F 75.0 °F 76% 30.00 in 10.0 mi SE 5.8 mph - N/A   Clear
8:35 AM 84.2 °F 91.9 °F 74.8 °F 73% 30.00 in 10.0 mi SSE 6.9 mph - N/A   Clear
8:55 AM 85.6 °F 94.6 °F 75.2 °F 71% 30.00 in 10.0 mi SE 9.2 mph - N/A   Clear
9:15 AM 86.4 °F 95.5 °F 75.0 °F 69% 29.99 in 10.0 mi SSE 12.7 mph - N/A   Scattered Clouds
9:35 AM 88.2 °F 96.9 °F 74.3 °F 63% 29.99 in 10.0 mi South 12.7 mph 17.3 mph N/A   Scattered Clouds
9:55 AM 89.8 °F 97.5 °F 72.5 °F 57% 29.99 in 10.0 mi SSE 15.0 mph 20.7 mph N/A   Scattered Clouds
10:15 AM 90.9 °F 98.9 °F 72.7 °F 55% 29.99 in 10.0 mi SSE 13.8 mph 20.7 mph N/A   Clear
10:35 AM 92.3 °F 99.7 °F 72.0 °F 51% 29.99 in 10.0 mi SSE 12.7 mph 18.4 mph N/A   Clear
10:55 AM 92.7 °F 99.9 °F 71.6 °F 50% 29.99 in 10.0 mi SSE 12.7 mph - N/A   Clear
11:15 AM 93.6 °F 100.7 °F 70.9 °F 48% 29.99 in 10.0 mi SSE 13.8 mph 21.9 mph N/A   Clear
11:35 AM 94.6 °F 100.5 °F 69.6 °F 44% 29.99 in 10.0 mi SSE 16.1 mph - N/A   Scattered Clouds
11:55 AM 95.9 °F 101.9 °F 69.4 °F 42% 29.99 in 10.0 mi SSE 12.7 mph - N/A   Scattered Clouds
12:15 PM 96.3 °F 102.0 °F 69.1 °F 41% 29.98 in 10.0 mi South 11.5 mph - N/A   Scattered Clouds
12:35 PM 96.4 °F 102.4 °F 69.1 °F 41% 29.98 in 10.0 mi SSE 9.2 mph 21.9 mph N/A   Scattered Clouds
12:55 PM 98.2 °F 104.7 °F 69.1 °F 39% 29.97 in 10.0 mi SSE 16.1 mph 24.2 mph N/A   Scattered Clouds
1:15 PM 99.0 °F 104.8 °F 68.7 °F 37% 29.97 in 10.0 mi SE 13.8 mph 18.4 mph N/A   Scattered Clouds
1:35 PM 99.3 °F 105.6 °F 68.7 °F 37% 29.96 in 10.0 mi SE 11.5 mph 21.9 mph N/A   Scattered Clouds
2:15 PM 99.3 °F 104.9 °F 67.6 °F 36% 29.94 in 10.0 mi SSE 16.1 mph 20.7 mph N/A   Scattered Clouds
2:35 PM 100.9 °F 106.0 °F 67.3 °F 33% 29.93 in 10.0 mi SE 16.1 mph 23.0 mph N/A   Scattered Clouds
2:55 PM 102.0 °F 108.1 °F 67.6 °F 33% 29.92 in 10.0 mi SSE 16.1 mph 20.7 mph N/A   Scattered Clouds
3:15 PM 99.9 °F 103.9 °F 66.4 °F 33% 29.91 in 10.0 mi SE 12.7 mph 21.9 mph N/A   Scattered Clouds
3:35 PM 100.6 °F 104.6 °F 65.7 °F 32% 29.91 in 10.0 mi SSE 16.1 mph 19.6 mph N/A   Scattered Clouds
3:55 PM 99.7 °F 104.2 °F 67.1 °F 34% 29.90 in 10.0 mi South 11.5 mph 21.9 mph N/A   Scattered Clouds
4:15 PM 101.8 °F 107.7 °F 68.0 °F 33% 29.90 in 10.0 mi SSE 19.6 mph 26.5 mph N/A   Scattered Clouds
4:35 PM 101.8 °F 106.3 °F 65.7 °F 31% 29.89 in 10.0 mi SE 12.7 mph 21.9 mph N/A   Scattered Clouds
4:55 PM 102.4 °F 106.6 °F 65.7 °F 30% 29.89 in 10.0 mi SSE 18.4 mph 23.0 mph N/A   Scattered Clouds
5:15 PM 100.9 °F 105.3 °F 65.7 °F 32% 29.88 in 10.0 mi South 15.0 mph 21.9 mph N/A   Scattered Clouds
5:35 PM 100.6 °F 104.6 °F 65.7 °F 32% 29.88 in 10.0 mi SE 13.8 mph 20.7 mph N/A   Scattered Clouds
5:55 PM 100.2 °F 105.3 °F 67.3 °F 34% 29.87 in 10.0 mi SE 15.0 mph - N/A   Scattered Clouds
6:15 PM 100.4 °F 106.3 °F 68.0 °F 35% 29.87 in 10.0 mi SE 15.0 mph 20.7 mph N/A   Mostly Cloudy
6:35 PM 99.0 °F 103.5 °F 67.1 °F 35% 29.87 in 10.0 mi SSE 17.3 mph 24.2 mph N/A   Scattered Clouds
6:55 PM 98.2 °F 102.8 °F 67.5 °F 36% 29.87 in 10.0 mi SE 12.7 mph 21.9 mph N/A   Clear
7:15 PM 97.0 °F 101.6 °F 67.3 °F 38% 29.87 in 10.0 mi SE 15.0 mph - N/A   Clear
7:35 PM 95.7 °F 99.8 °F 67.1 °F 39% 29.88 in 10.0 mi SSE 18.4 mph 24.2 mph N/A   Clear
7:55 PM 94.6 °F 99.4 °F 68.0 °F 42% 29.89 in 10.0 mi SE 17.3 mph 21.9 mph N/A   Clear
8:10 PM 92.8 °F 100.3 °F 71.4 °F 50% 29.89 in 10.0 mi SE 16.1 mph 21.9 mph N/A   Clear
8:20 PM 91.8 °F 99.7 °F 72.5 °F 53% 29.89 in 10.0 mi SE 13.8 mph - N/A   Clear
8:35 PM 90.7 °F 98.5 °F 72.7 °F 55% 29.90 in 10.0 mi SE 13.8 mph 26.5 mph N/A   Clear
8:55 PM 89.6 °F 97.2 °F 72.5 °F 57% 29.91 in 10.0 mi SE 12.7 mph 19.6 mph N/A   Clear
9:15 PM 88.5 °F 95.8 °F 72.5 °F 59% 29.91 in 10.0 mi ESE 11.5 mph 18.4 mph N/A   Clear
9:35 PM 87.4 °F 94.8 °F 72.9 °F 62% 29.92 in 10.0 mi SE 11.5 mph - N/A   Clear
9:55 PM 86.5 °F 94.2 °F 73.4 °F 65% 29.92 in 10.0 mi SE 9.2 mph 17.3 mph N/A   Clear
10:15 PM 85.8 °F 93.4 °F 73.8 °F 67% 29.93 in 10.0 mi ESE 11.5 mph - N/A   Clear
10:35 PM 85.1 °F 92.9 °F 74.3 °F 70% 29.94 in 10.0 mi SE 9.2 mph - N/A   Clear
10:55 PM 84.6 °F 92.1 °F 74.3 °F 71% 29.95 in 10.0 mi SE 9.2 mph 16.1 mph N/A   Clear
11:15 PM 84.2 °F 91.6 °F 74.5 °F 72% 29.95 in 10.0 mi SE 10.4 mph - N/A   Clear
11:35 PM 83.7 °F 91.0 °F 74.7 °F 74% 29.96 in 10.0 mi SE 10.4 mph - N/A   Clear
11:55 PM 83.5 °F 90.9 °F 74.7 °F 75% 29.96 in 10.0 mi SE 10.4 mph 16.1 mph N/A   Clear